Regional Weather Roundup
Issued by NWS

Home | Current Version | Previous Version | Graphics & Text | Print | Product List | Glossary On
Versions: 1 2 3 4 5 6 7 8 9 10 11 12 13 14 15 16 17 18 19 20 21 22 23 24 25 26 27 28 29 30 31 32 33 34 35 36 37 38 39 40 41 42 43 44 45 46 47 48 49 50
000
ASUS45 KCYS 070510
RWRWY

WYOMING REGIONAL WEATHER ROUNDUP
NATIONAL WEATHER SERVICE CHEYENNE WY
1100 PM MDT WED MAY 06 2015

NOTE:  "FAIR" INDICATES FEW OR NO CLOUDS BELOW 12,000 FEET
WITH NO SIGNIFICANT WEATHER AND/OR OBSTRUCTIONS TO VISIBILITY.

WYZ001-070600-
YELLOWSTONE NATIONAL PARK

CITY           SKY/WX    TMP DP  RH WIND       PRES   REMARKS
LK YELLOWSTONE   N/A     36  32  85 CALM      29.91S
W YELLOWSTONE  NOT AVBL

$$
WYZ002>013-054>058-071-098>099-070600-
NORTHERN WYOMING

CITY           SKY/WX    TMP DP  RH WIND       PRES   REMARKS
JACKSON        CLOUDY    43  41  93 N14G20    29.82R
CODY           CLOUDY    45  28  53 N13       29.92S
GREYBULL       CLOUDY    49  43  80 S5        29.87R
WORLAND        CLOUDY    49  37  63 NW10      29.87S
SHERIDAN       CLOUDY    46  39  76 NW8       29.92R
BUFFALO        CLOUDY    47  31  53 NW20G28   29.90R
GILLETTE       CLOUDY    44  40  85 NW15      29.86S
HULETT         CLOUDY    45  43  93 N12G22    29.86R
NEWCASTLE      DRIZZLE   45  43  93 NW18      29.80S

$$
WYZ014>020-022>026-101>103-070600-
CENTRAL WYOMING

CITY           SKY/WX    TMP DP  RH WIND       PRES   REMARKS
BIG PINEY      LGT RAIN  43  39  86 S17       29.85R
PINEDALE       LGT RAIN  41  39  93 SW5       29.85S
DUBOIS         RAIN      36  34  93 SE10G17   29.88R WCI  28
LANDER         LGT RAIN  43  40  89 N10       29.89R FOG
RIVERTON       LGT RAIN  43  39  86 E8        29.90R
CASPER         LGT RAIN  40  38  93 NE5       29.91S
DOUGLAS        CLOUDY    43  40  89 NW8       29.89R

$$
WYZ021-027>030-104>119-070600-
SOUTHERN WYOMING

CITY           SKY/WX    TMP DP  RH WIND       PRES   REMARKS
EVANSTON       CLOUDY    40  40 100 S7        29.83S
KEMMERER       RAIN      41  39  93 CALM      29.84S
FORT BRIDGER   LGT RAIN  45  45 100 SW6       29.87R
ROCK SPRINGS   LGT RAIN  42  40  92 E17       29.84S
DIXON          LGT RAIN  46  44  92 S5        29.89S
RAWLINS        LGT RAIN  40  37  89 NE13      29.90R WCI  32
SARATOGA       DRIZZLE   41  39  93 NW5       29.89R
LARAMIE        CLOUDY    39  38  96 NW13      29.88R WCI  31
CHEYENNE       LGT RAIN  42  39  89 N13G23    29.86R
TORRINGTON     CLOUDY    49  42  77 NW14G26   29.80R
PINE BLUFFS    DRIZZLE   45  41  87 NW16      29.84S

$$



USA.gov is the U.S. government's official web portal to all federal, state and local government web resources and services.